Theta_e
326 327 328 329 330 331 330 335 336 343 346 348 350 351 352 350 353 352 353 352 349 349 352 356 361 359 359 358 356 353 350 353 353
326 326 325 325 327 331 333 335 341 343 347 348 351 351 353 353 352 354 350 349 353 351 352 358 361 360 356 351 346 348 349 353 352
325 327 326 328 329 331 332 337 340 346 350 350 352 352 354 357 356 357 356 357 359 350 356 357 359 357 355 351 348 344 344 352 352
327 327 327 330 331 332 333 334 338 346 348 348 349 351 354 354 357 358 358 356 356 356 357 359 358 354 353 352 350 352 349 348 350
326 329 330 331 331 333 332 335 334 343 340 342 342 341 354 355 356 358 357 357 355 359 357 360 360 354 350 350 350 350 349 347 348
330 335 332 332 333 335 333 338 340 335 335 337 331 338 354 356 356 357 355 356 356 360 361 359 357 355 352 352 351 348 349 347 347
332 331 332 330 329 332 333 336 340 339 341 343 338 335 354 354 355 355 355 354 356 358 360 353 355 355 354 352 348 343 345 346 345
334 332 330 328 327 328 329 334 351 342 341 340 338 339 354 352 355 355 358 362 361 357 357 355 355 353 350 342 337 336 335 338 344
333 334 336 333 333 332 333 344 355 356 355 354 360 358 361 362 361 358 362 359 354 351 354 354 353 348 343 336 335 333 336 339 339
334 334 336 338 338 338 336 343 354 354 358 359 359 355 359 358 361 362 360 357 354 355 353 353 349 343 339 335 330 331 333 337 339
336 337 336 336 338 337 340 348 355 343 333 352 358 356 357 360 361 357 355 354 355 354 353 349 348 342 339 336 328 330 330 334 338
336 339 338 337 338 341 350 355 355 348 344 353 352 350 352 355 360 358 355 354 352 350 347 345 344 345 342 337 331 325 328 333 341
338 340 341 341 347 349 349 351 356 355 353 352 351 352 353 358 357 356 354 352 349 347 345 343 342 341 342 339 333 323 326 328 338
338 338 337 344 343 343 344 351 353 351 351 349 351 353 355 353 352 353 352 350 348 346 344 342 342 340 339 336 333 327 326 328 335
335 336 339 340 341 341 342 347 351 349 349 351 352 352 352 351 351 352 352 349 345 344 342 340 340 339 336 335 332 324 324 326 327
336 337 337 340 339 338 343 349 353 350 351 351 350 349 349 349 350 351 351 347 345 342 341 340 339 342 338 335 336 330 326 326 328
337 337 337 339 339 339 345 349 351 351 352 352 350 347 348 350 349 348 349 350 349 345 345 341 336 337 339 337 335 336 332 332 334
336 336 338 339 341 345 345 347 348 350 351 351 348 348 348 347 346 347 347 343 339 341 333 334 339 334 336 336 335 334 322 325 331
336 337 339 341 344 345 345 346 347 350 352 350 348 344 344 343 344 346 344 338 330 312 311 310 307 313 321 318 315 309 305 302 303
331 340 341 341 343 347 346 346 347 350 353 351 347 343 343 341 339 342 341 343 336 331 321 310 308 306 311 313 314 305 303 304 303
Wind_Speed
14 16 18 17 16 15 12 16 10 15 12 8 8 8 8 7 7 4 4 4 4 2 1 3 7 5 3 1 3 6 7 9 5
13 10 11 13 11 16 8 15 12 16 12 9 9 9 6 7 6 5 4 6 4 2 2 4 5 5 4 8 7 5 2 7 5
14 11 9 12 11 11 10 14 14 15 14 14 12 9 8 6 7 6 6 4 4 5 2 4 7 6 8 8 5 6 5 6 4
15 13 10 14 14 13 15 13 15 17 11 5 3 8 10 8 7 7 7 5 5 5 2 3 5 8 9 6 3 4 4 4 4
7 14 11 18 13 9 8 3 9 12 6 7 1 3 7 9 7 7 7 6 7 5 4 3 7 7 5 5 3 3 1 3 4
6 4 5 12 11 9 10 9 14 14 14 9 7 5 8 8 9 8 7 7 7 7 6 7 6 7 6 4 3 0 4 4 5
6 8 7 7 8 13 10 10 9 16 15 22 17 3 9 7 7 8 8 7 8 6 7 7 7 6 5 5 7 5 6 5 5
7 9 10 7 10 7 7 6 9 11 11 10 7 11 9 8 8 7 6 7 9 10 11 7 6 7 7 7 5 4 5 5 6
8 9 12 12 8 6 7 8 8 6 9 11 8 7 5 6 9 9 7 10 10 9 8 7 7 7 7 7 4 8 6 6 5
12 10 9 11 12 11 8 8 10 8 6 5 7 6 7 7 8 9 9 9 9 8 7 7 7 6 7 6 5 6 8 8 3
13 13 11 9 8 7 8 7 10 10 9 1 6 6 6 7 9 8 7 7 8 7 7 7 6 6 6 6 4 6 8 7 1
11 15 13 11 9 9 8 13 11 11 8 6 7 5 5 7 10 9 7 8 8 8 8 5 4 5 6 6 4 3 3 4 2
14 15 12 13 11 14 15 11 13 12 8 8 7 7 7 8 8 9 9 10 9 5 6 6 5 6 5 6 4 2 5 4 3
16 15 11 13 13 12 12 14 14 11 8 8 7 7 9 8 7 9 9 7 5 5 6 6 5 5 4 4 2 2 5 5 5
18 15 17 14 13 11 8 10 14 12 10 8 9 10 10 9 7 7 6 7 5 7 7 6 5 5 3 2 3 1 1 6 7
19 20 16 14 14 10 8 13 13 13 10 10 8 9 10 8 8 7 6 6 6 5 6 5 5 4 4 4 3 1 1 1 3
18 18 15 14 13 13 11 13 12 14 12 10 9 8 7 8 8 6 5 4 4 4 4 4 4 4 5 4 3 3 3 3 2
19 15 14 14 16 13 14 14 13 12 11 11 9 7 7 7 6 6 5 3 1 3 1 3 4 5 5 5 5 4 4 2 3
16 14 15 15 16 16 14 13 12 10 10 11 9 7 5 5 6 5 4 4 4 10 4 5 8 4 8 2 5 9 8 7 6
14 17 17 18 17 16 15 13 12 10 10 11 9 7 6 5 5 5 5 5 5 5 2 3 5 6 7 9 12 8 4 4 2
Wind_Direction
164 180 179 186 184 184 184 177 163 168 170 166 174 184 191 190 200 191 188 209 232 184 258 172 173 172 151 164 95 72 31 304 267
178 174 176 173 162 182 163 172 153 162 167 172 184 190 179 191 199 195 210 225 242 233 216 191 148 148 106 60 28 20 225 275 286
178 175 170 162 164 155 160 168 155 162 169 180 186 181 182 186 188 187 204 228 271 212 219 130 146 134 113 120 139 266 277 271 271
174 180 170 172 173 173 171 164 162 170 166 157 180 186 180 180 186 188 198 210 233 219 163 67 109 110 132 149 156 258 275 340 343
173 180 182 173 170 121 102 56 140 111 84 95 3 307 211 182 174 182 190 204 218 213 178 145 113 112 136 131 155 264 1 328 352
73 75 169 121 121 117 105 77 119 116 92 353 253 245 222 187 177 182 192 200 212 193 169 113 99 89 107 150 155 32 30 13 3
81 108 111 128 146 139 143 117 151 140 154 192 238 260 239 181 170 180 203 201 207 161 114 100 118 106 119 82 65 45 23 1 322
132 124 124 133 144 146 129 122 154 162 169 184 200 226 199 179 167 171 115 88 89 96 101 116 107 101 79 80 73 46 28 355 342
154 138 146 154 167 162 148 149 137 151 157 172 182 109 97 110 117 114 103 109 103 101 109 111 104 103 104 85 73 46 32 28 1
159 161 148 152 167 159 161 173 161 134 100 105 115 110 115 102 97 110 113 112 110 112 115 107 108 107 101 92 73 29 11 357 344
166 163 159 157 163 163 176 165 120 120 137 108 114 103 121 121 113 115 113 110 112 111 106 116 119 126 118 101 67 22 357 329 293
165 157 169 165 176 170 126 125 130 121 134 163 102 125 137 120 130 133 125 119 107 110 111 110 111 118 107 100 81 19 359 33 128
155 154 158 169 144 118 121 119 114 109 113 116 120 126 120 109 116 120 109 109 113 116 116 117 103 97 103 115 121 37 20 25 188
155 154 156 132 125 125 130 128 120 115 113 115 121 115 105 102 105 111 114 108 115 120 119 114 111 111 117 114 120 68 41 55 98
154 147 131 130 124 128 132 127 124 125 123 134 129 122 125 121 118 122 118 124 121 122 121 126 142 143 155 184 180 139 61 68 62
146 137 134 130 133 122 110 128 124 117 131 128 119 121 133 133 127 130 136 135 137 136 143 158 175 175 185 207 185 173 242 30 35
136 134 135 134 120 122 117 122 123 127 133 126 124 128 131 133 131 129 146 143 157 156 184 189 194 193 197 204 174 191 225 253 263
131 135 136 134 130 128 131 129 130 139 135 131 130 138 141 139 129 155 178 127 243 172 97 234 178 178 164 144 159 195 208 167 120
139 132 133 131 130 132 137 135 139 144 136 141 136 144 148 156 154 175 175 148 105 41 108 68 50 108 131 109 126 158 194 105 101
139 133 135 138 141 137 139 141 149 154 144 147 149 162 174 169 164 178 183 173 165 154 74 75 76 91 132 162 169 193 121 92 57